Weather in Beklemishevo

Russia / Ulyanovsk Oblast     53°51′32″N   47°24′29″E
temp.,
°C
wind,
m/s
gust,
m/s
humid.,
%
clouds,
%
prec.,
mm/h
press.,
hPa
HPBL,
m
12 april, mon
mon1201:00+4n4799100 0.0 1032187
04:00+4ene51099100 0.0 1032223
07:00+4ne4999100 0.0 1033233
10:00+7ene5896100 0.0 1034262
13:00+12ene467873 0.0 1033467
16:00+16e466598 0.0 1033698
19:00+12ene478474 0.0 1033163
22:00+9ene379432 0.0 1034125
13 april, tue
tue1301:00+8e329190 0.0 103436
04:00+8ese228769 0.0 103411
07:00+8se228880 0.0 103420
10:00+13se476976 0.0 1034404
13:00+16sse564933 0.0 1033855
16:00+17sse563675 0.0 10321093
19:00+13se33515 0.0 103131
22:00+10sse33595 0.0 103225
14 april, wed
wed1401:00+8sse33655 0.0 103121
04:00+6sse226773 0.0 103115
07:00+6se226760 0.0 103022
10:00+12se465030 0.0 1029355
13:00+15se56405 0.0 1028816
16:00+16se56415 0.0 10261035
19:00+14se22575 0.0 102538
22:00+10se22675 0.0 102515
15 april, thu
thu1501:00+9sse22755 0.0 102410
04:00+8se11815 0.0 102310
07:00+8se11835 0.0 102310
10:00+13se23680 0.0 1021377
13:00+16se33570 0.0 10201143
16:00+17sse335258 0.0 10181501
19:00+15se236142 0.0 101737
22:00+12s22683 0.0 101724
16 april, fri
fri1601:00+10ssw22680 0.0 101613
04:00+9sw11732 0.0 101610
07:00+9wsw11745 0.0 101510
10:00+15w22546 0.0 1014344
13:00+18wnw22415 0.0 10141862
16:00+18nnw2338100 0.0 10122047
19:00+13nne81165100 0.0 1013581
22:00+6nne71184100 0.2 1016590